Weather History for Andalusia, AL

Change the Weather History Date:

Saturday, December 22, 2012

  Actual Average (KCEW) Record (KCEW)
Temperature  
Mean Temperature 46 °F -  
Max Temperature 62 °F 58 °F 77 °F (1992)
Min Temperature 30 °F 38 °F 19 °F (1976)
Degree Days  
Heating Degree Days 19    
Moisture  
Dew Point 21 °F    
Average Humidity 47    
Maximum Humidity 79    
Minimum Humidity 16    
Precipitation  
Precipitation 0.00 in - - ()
Sea Level Pressure  
Sea Level Pressure 30.30 in    
Wind  
Wind Speed 6 mph (NNW)    
Max Wind Speed 12 mph    
Max Gust Speed -    
Visibility 10 miles    
Events      
Averages and records for this station are not official NWS values.
T = Trace of Precipitation, MM = Missing Value Source: NWS Daily Summary

Daily Weather History Graph

Daily Weather History Graph

Search for Another Location

Airport:

Trip Planner

Search our weather history database for the weather conditions in past years. The results will help you decide how hot, cold, wet, or windy it might be!

Date:

Astronomy

Dec. 22, 2012 Rise Set
Actual Time 6:41 AM CST 4:47 PM CST
Civil Twilight 6:14 AM CST 5:14 PM CST
Nautical Twilight 5:43 AM CST 5:45 PM CST
Astronomical Twilight 5:14 AM CST 6:14 PM CST
Moon 12:54 PM CST (12/22) 1:37 AM CST (12/22)
Length of Visible Light 11h 00m
Length of Day
10h 06m
Waxing Gibbous, 74% of the Moon is Illuminated
Dec 22
Waxing Gibbous
Dec 28
Full
Jan 4
Last Quarter
Jan 11
New
Jan 18
First Quarter

Hourly Weather History & Observations

Time (CST) Temp. Windchill Dew Point Humidity Pressure Visibility Wind Dir Wind Speed Gust Speed Precip Events Conditions
12:56 AM 34.0 °F 28.0 °F 19.9 °F 56% 30.29 in 10.0 mi NNW 6.9 mph - N/A   Clear
1:56 AM 34.0 °F 28.8 °F 19.0 °F 54% 30.29 in 10.0 mi NNW 5.8 mph - N/A   Clear
2:56 AM 33.1 °F 26.9 °F 19.0 °F 56% 30.28 in 10.0 mi North 6.9 mph - N/A   Clear
3:56 AM 32.0 °F 26.4 °F 19.0 °F 59% 30.29 in 10.0 mi NNW 5.8 mph - N/A   Clear
4:56 AM 32.0 °F 26.4 °F 19.0 °F 59% 30.31 in 10.0 mi NW 5.8 mph - N/A   Clear
5:56 AM 32.0 °F 25.6 °F 19.9 °F 61% 30.32 in 10.0 mi NW 6.9 mph - N/A   Clear
6:56 AM 30.9 °F 26.2 °F 19.0 °F 61% 30.35 in 10.0 mi NNW 4.6 mph - N/A   Clear
7:56 AM 37.9 °F 35.5 °F 21.0 °F 51% 30.36 in 10.0 mi North 3.5 mph - N/A   Clear
8:56 AM 45.0 °F 40.1 °F 18.0 °F 34% 30.38 in 10.0 mi North 9.2 mph - N/A   Clear
9:56 AM 50.0 °F - 12.9 °F 23% 30.38 in 10.0 mi NNE 9.2 mph - N/A   Clear
10:56 AM 53.1 °F - 15.1 °F 22% 30.37 in 10.0 mi North 9.2 mph - N/A   Clear
11:56 AM 55.9 °F - 14.0 °F 19% 30.32 in 10.0 mi NNW 9.2 mph - N/A   Clear
12:56 PM 60.1 °F - 14.0 °F 16% 30.30 in 10.0 mi North 11.5 mph - N/A   Clear
1:56 PM 61.0 °F - 15.1 °F 17% 30.27 in 10.0 mi NNW 10.4 mph - N/A   Clear
2:56 PM 62.1 °F - 16.0 °F 17% 30.26 in 10.0 mi North 8.1 mph - N/A   Clear
3:56 PM 60.1 °F - 17.1 °F 19% 30.27 in 10.0 mi North 5.8 mph - N/A   Clear
4:56 PM 54.0 °F - 21.9 °F 29% 30.27 in 10.0 mi Calm Calm - N/A   Clear
5:56 PM 46.9 °F - 28.0 °F 48% 30.28 in 10.0 mi Calm Calm - N/A   Clear
6:56 PM 42.1 °F - 28.9 °F 60% 30.28 in 10.0 mi Calm Calm - N/A   Clear
7:56 PM 41.0 °F - 28.9 °F 62% 30.27 in 10.0 mi Calm Calm - N/A   Clear
8:56 PM 37.9 °F - 28.9 °F 70% 30.27 in 10.0 mi Calm Calm - N/A   Clear
9:56 PM 37.0 °F - 28.9 °F 73% 30.28 in 10.0 mi Calm Calm - N/A   Clear
10:56 PM 36.0 °F - 28.9 °F 76% 30.27 in 10.0 mi Calm Calm - N/A   Clear
11:56 PM 34.0 °F - 28.0 °F 79% 30.24 in 10.0 mi Calm Calm - N/A   Clear